Aérodrome :
LOGIN :

S'inscrire | Disclaimer

   EN    FR    IT 

 










Légende :    VFR   VFR Marginal   IFR   IFR Intensif   IFR Très Intensif
Visi : 
Plafond : 
>= 8 km
>= 3000ft
5 à 8 km
1000 à 3000 ft
1500m à 5 km
500 à 1000 ft
800 à 1500m
200 à 500 ft
< 800m
< 200 ft
Symboles :   Orages  Brouillard  Fortes neiges  Fortes précipitations  Vent > 20 kt
SIGMETs :   Divers  Orages  Givrage  Turbulence  Onde Orograph.  Cendres Volcan.






- Altitude de l'aérodrome : 392 ft
- Code IATA : CDG


LFPG - Paris-Aeroport Charles De Gaulle

DERNIER METAR :
  • 210400Z 01007KT 7000 NSC 07/03 Q1016 NOSIG

METARs EXPIRÉS :
  • 210330Z 01008KT 7000 NSC 07/03 Q1016 NOSIG
  • 210300Z 01010KT CAVOK 08/03 Q1016 NOSIG
  • 210230Z 02007KT CAVOK 08/03 Q1016 NOSIG
  • 210200Z 01008KT CAVOK 08/03 Q1016 NOSIG

TAF TAF LFPG
Valide du 21 à 00h jusqu'au 22 à 06h UTC


202300Z 2100/2206 03005KT CAVOK TX18/2113Z TN05/2205Z
TEMPO 2111/2117 SCT045TCU
PROB40
TEMPO 2112/2116 4000 SHRA
PROB30
TEMPO 2114/2116 09015G25KT 2500 SHRA SCT035CB
ATIS : +33 1 48 62 10 92



MET'MAP, la Météo Aéronautique d'un coup d'oeil ! - Copyright ORBIFLY Décembre 2007 - Disclaimer

ORBIFLY MET'MAP TEAM :

Programmation & Développement : Alexandra Zaïnal
Sur une idée originale de : Baudouin d'Aumeries
Assistance à la programmation : Marc-Olivier Méhu
Soutien technique & logistique : Manuel Goepfert

Contact : metmap@orbifly.com




SOURCES & CREDITS :

   NOAA